www.pogodaiklimat.ru

Погода и климат >> Архив погоды >> Россия >> Чукотка >> Билибино


ПОГОДА в Билибино

  • Прогноз погоды в Билибино
  • Монитор погоды в Билибино
  • Климат города

АРХИВ ПОГОДЫ в Билибино

Время (UTC), дата Ветер
(напр.,м/с)
 
Видим.   Явления Облачность Т
(С)
Тd
(С)
f
(%)
Тe
(С)
Тes
(С)
Комфортность P
(гПа)
Po
(гПа)
Тmin
(С)
Tmax
(С)
R
(мм)
R24
(мм)
S
(см)
21 18.04 СВ 1
{2}
50 км {снег} 10/4 600 м
[Sc Ac As]
-1.3 -4.2 81 -3 -3 1025.5 990.2 -5.1 0.0 31
00 19.04 ЮЗ 3
{5}
50 км {снег} 10/8 600 м
[Sc Cs]
+1.4 -5.9 58 -2 -2 1026.0 991.1
03 19.04 З 2
{7}
50 км 8/8 600 м
[Cu med, cong]
+3.8 -8.1 41 +2 +3 1026.3 991.5
06 19.04 Ю 3
{5}
50 км 9/4 600 м
[Cu hum Ci fib]
+2.5 -8.3 45 -1 0 1026.2 991.3
09 19.04 В 2
{7}
50 км 10/0
[Ac und]
-0.6 -7.8 58 -4 -4 1026.8 991.5 +3.9
12 19.04 В 2
{7}
50 км 10/0
[Ac und]
-1.4 -8.6 58 -5 -5 1026.3 991.0
15 19.04 ЮВ 1
{4}
10 км слабый снег 10/0
[As op]
-3.0 -5.4 83 -5 -5 1026.3 990.7
18 19.04 С 1
{2}
10 км слабый снег 10/0
[As op]
-3.8 -5.0 91 -6 -6 1026.3 990.7
21 19.04 СВ 2
{2}
20 км снежные кристаллы 10/8 600 м
[Sc Cs]
-2.6 -5.9 78 -6 -6 1026.0 990.6 -4.1 0.8 31
00 20.04 штиль 0
{2}
50 км {снег} 10/8 600 м
[Cb cap Ac As]
+1.1 -5.7 60 +1 +1 1025.0 990.1
03 20.04 ЮВ 1
{2}
50 км 9/9 600 м
[Cb cap]
+2.1 -6.3 54 +1 +2 1024.2 989.4
06 20.04 СВ 1
{3}
50 км 10/10 600 м
[Sc]
+2.1 -5.9 55 +1 +1 1023.7 988.9
09 20.04 С 1
{3}
50 км 10/0
[Ac As]
-0.2 -4.7 72 -2 -2 1024.0 988.8 +2.5 0.0
12 20.04 СВ 1
{3}
50 км 10/0
[Ac As]
-0.9 -4.1 79 -3 -3 1023.9 988.7
15 20.04 штиль 0
{3}
50 км 10/0
[Ac As]
-1.4 -4.0 82 -2 -2 1023.5 988.3
18 20.04 штиль 0
{3}
50 км 10/0
[Ac As]
-0.6 -3.7 80 -2 -2 1023.1 988.0
21 20.04 штиль 0
{1}
50 км 10/0
[Ac As]
+1.1 -2.7 76 0 +2 1023.2 988.4 -1.7 31
00 21.04 СВ 1
{2}
50 км {снег} 10/4 1000 м
[Sc Ac und]
+3.3 -2.4 66 +2 +4 1022.8 988.2
03 21.04 ЮЗ 2
{3}
50 км 10/8 1000 м
[Sc Ac As]
+4.4 -2.3 62 +2 +3 1022.7 988.3
06 21.04 ЮЗ 1
{4}
50 км 10/4 1000 м
[Sc Ci fib]
+6.2 -3.0 52 +6 +7 1022.3 988.1
09 21.04 СВ 1
{2}
50 км 10/8 1000 м
[Sc Ci fib]
+2.0 -2.0 75 +1 +1 1023.5 988.7 +7.6 0.0
12 21.04 штиль 0
{3}
20 км 9/9 1000 м
[Sc]
+0.6 -2.0 83 -1 -1 1024.0 989.0
15 21.04 СВ 1
{4}
50 км 3/3 1000 м
[Sc]
-1.8 -3.9 86 -4 -4 1024.3 989.0
18 21.04 Ю 1
{5}
50 км 1/0
[Ci fib]
-4.3 -6.2 87 -7 -6 1024.7 989.0
21 21.04 СВ 2
{4}
50 км ясно +0.1 -5.2 67 -3 +1 1024.2 989.2 -4.4 29
00 22.04 СВ 4
{5}
50 км ясно +3.4 -4.0 58 -1 +4 1023.0 988.4
03 22.04 СВ 5
{7}
50 км ясно +4.8 -4.3 52 +1 +4 1022.2 987.8
06 22.04 СВ 5
{7}
50 км ясно +3.9 -3.7 58 -1 +1 1022.4 987.8
09 22.04 С 4
{7}
50 км ясно +0.5 -4.2 71 -5 -5 1023.4 988.4 +4.9
12 22.04 С 5
{8}
20 км ясно -2.5 -6.2 76 -9 -9 1023.9 988.5
15 22.04 С 3
{7}
20 км ясно -4.8 -8.0 78 -10 -10 1024.5 988.7
18 22.04 С 2
{6}
50 км ясно -5.9 -8.9 79 -10 -10 1025.1 989.1
21 22.04 СВ 3
{7}
50 км ясно -3.2 -8.3 68 -8 -5 1024.8 989.2 -6.7 25
00 23.04 СВ 4
{6}
50 км 3/0
[Ac trans]
+3.1 -6.1 51 -1 +3 1023.5 988.8
03 23.04 СВ 4
{6}
50 км 4/3 600 м
[Cu Sc Ac trans]
+3.3 -6.2 50 -1 +2 1023.4 988.7
06 23.04 СВ 4
{6}
50 км 5/1 600 м
[Sc Ac trans Ci]
+2.7 -5.8 53 -1 -0 1023.5 988.7
09 23.04 С 3
{6}
50 км 5/0
[Ci fib]
-1.0 -6.4 67 -6 -6 1024.6 989.3 +3.5
12 23.04 СВ 4
{6}
20 км 3/0
[Ci fib]
-4.0 -7.7 75 -10 -10 1025.0 989.3
15 23.04 Ю 1
{6}
50 км 3/0
[Ci fib]
-10.3 -11.6 90 -13 -13 1025.7 989.2
18 23.04 СВ 3
{4}
50 км 3/0
[Ci fib]
-10.4 -12.4 85 -16 -16 1025.9 989.4
21 23.04 СВ 3
{3}
50 км ясно -5.8 -11.5 64 -11 -8 1025.4 989.4 -12.4 25
00 24.04 штиль 0
{4}
50 км 1/0
[Ci fib]
+3.0 -8.5 43 +3 +13 опасность
простуды
1023.0 988.3
03 24.04 СВ 4
{6}
50 км 8/0
[Ci ing]
+2.5 -6.5 51 -2 +2 1021.8 987.1
06 24.04 СВ 5
{7}
50 км 3/1 600 м
[Sc Ci]
+0.9 -8.1 51 -4 -3 1021.3 986.4
09 24.04 СВ 3
{7}
50 км 1/1 600 м
[Sc]
-2.3 -8.6 62 -7 -7 1021.6 986.3 +4.2
12 24.04 ЮЗ 1
{7}
20 км ясно -6.4 -10.9 70 -9 -9 1022.0 986.1
15 24.04 С 2
{5}
50 км ясно -9.8 -11.9 85 -14 -14 1022.0 985.6
18 24.04 С 3
{5}
50 км ясно -10.1 -12.1 85 -16 -16 1021.7 985.4
21 24.04 СВ 4
{6}
50 км ясно -6.4 -11.4 68 -13 -10 1020.4 984.6 -10.9 25
00 25.04 СВ 5
{8}
50 км ясно -4.5 -10.6 62 -11 -7 1019.0 983.5
03 25.04 СВ 5
{7}
50 км ясно -3.2 -10.0 59 -10 -6 1017.6 982.3
06 25.04 СВ 5
{8}
50 км ясно -3.7 -10.3 60 -10 -9 1017.0 981.7
09 25.04 СВ 6
{9}
50 км 6/0
[Ac lent Ci fib]
-16.9 -11.6 100 -27 -27 1017.3 981.6 -2.8
12 25.04 С 3
{8}
20 км 4/0
[Ci fib]
-10.1 -12.9 80 -16 -16 1017.5 981.4
15 25.04 СВ 3
{8}
20 км 3/0
[Ci fib]
-11.1 -13.9 80 -17 -17 1017.0 980.7
18 25.04 В 2
{6}
50 км 3/1 600 м
[Cu hum Ci fib]
-10.8 -13.6 80 -15 -15 1016.7 980.4

 

Местоположение метеостанции Билибино (Чукотка, Россия): широта 68.05 долгота 166.40 высота над уровнем моря 280 м.

В архиве по умолчанию представлена погода в Билибино за последнюю неделю. Архивные данные за месяц целиком и за предыдущие месяцы, начиная с января 2011 года, Вы можете получить, выбрав интересующий диапазон дат из раскрывающегося списка и нажав кнопку "Ввод!".

Внимание! Время в таблицах - всемирное. Для получения местного времени необходимо прибавить поправку, которая в Билибино равна 12 ч.

Смотрите также архив погоды в соседних городах и на ближайших метеорологических станциях:

Погода на Островном (Чукотка, Россия) (96 км)
Погода в Илирнее (Чукотка, Россия) (109 км)
Погода в Раучуе (Чукотка, Россия) (161 км)
Погода в Баимке (Чукотка, Россия) (194 км)
Погода в Чауне (Чукотка, Россия) (198 км)
Погода в Анюйске (Чукотка, Россия) (205 км)
Погода на Айон Острове (Чукотка, Россия) (217 км)
Погода в Константиновской (Чукотка, Россия) (220 км)
Погода в Черском (Якутия, Россия) (222 км)
Погода в Певеке (Чукотка, Россия) (238 км)

Пояснения к столбцам:

Ветер - указаны скорость ветра в м/с - средняя за 10 мин, порывы в срок и между сроками (в фигурных скобках) и направление, откуда дует ветер: С - северный, СВ - северо-восточный, В - восточный, ЮВ - юго-восточный, Ю - южный, ЮЗ - юго-западный, З - западный, СЗ - северо-западный.
Видимость - горизонтальная дальность видимости в метрах или километрах. При видимости от 1 до 10 км при отсутствии осадков обычно наблюдается дымка, при ухудшении видимости до 1 км и менее - туман. В сухую погоду видимость может ухудшаться дымом, пылью или мглою.
Явления - указаны атмосферные явления, наблюдавшиеся в срок или в последний час перед сроком; фигурными скобками обозначены явления, наблюдавшиеся между сроками (за 1-3 часа до срока); квадратными скобками обозначены град или гололедные отложения с указанием их диаметра в мм.
Облачность - указаны через наклонную черту общая и нижняя облачность в баллах и высота нижней границы облаков в метрах; квадратными скобками обозначены формы облаков: Ci - перистые, Cs - перисто-слоистые, Cc - перисто-кучевые, Ac - высококучевые, As - высокослоистые, Sc - слоисто-кучевые, Ns - слоисто-дождевые, Cu - кучевые, Cb - кучево-дождевые. Подробнее классификацию облаков см. в Атласе облаков (PDF).
T - Температура воздуха - температура, измеренная на высоте 2 м над землей.
Td - Температура точки росы - температура, при понижении до которой содержащийся в воздухе водяной пар достигнет насыщения.
f - Относительная влажность воздуха - влажноcть воздуха, измеренная на высоте 2 м над землей.
Te - Эффективная температура - температура, которую ощущает одетый по сезону человек в тени. Характеристика душности погоды. При расчете учитывается влияние влажности воздуха и скорости ветра на теплоощущения человека.
Tes - Эффективная температура на солнце - температура, которую ощущает человек, с поправкой на солнечный нагрев. Характеристика знойности погоды. Зависит от высоты солнца над горизонтом, облачности и скорости ветра. Ночью, в пасмурную погоду, а также при ветре 12 м/с и более поправка равна нулю.
P - Атмосферное давление - приведенное к уровню моря атмосферное давление.
Po - Атмосферное давление - измеренное на уровне метеостанции атмосферное давление.
Tmin - Минимальная температура - минимум температуры воздуха на высоте 2 м над землей.
Tmax - Максимальная температура - максимум температуры воздуха на высоте 2 м над землей.
R - Количество осадков - Количество выпавших осадков за период времени, мм. При наведении курсора мыши на число - период времени, за который выпало указанное количество осадков.
R24 - Количество осадков - Количество выпавших осадков за 24 часа, мм.
S - Снежный покров - Высота снежного покрова, см. При наведении курсора мыши на число - состояние снежного покрова и степень покрытия местности в баллах.